loading
|

SCOUT B DEB, 3392

Orbit data source: Space-Track

SCOUT B DEB, 3392 is space debris in LEO originally from a launch on Thu, 08 Aug 1968 UTC launched from the Air Force Western Test Range (AFWTR). Debris objects in space refer to the collection of defunct objects orbiting the Earth. Examples of debris include non-operational satellites, rocket bodies, and fragments generated from explosions, collisions, or faulty payload assembly.

Loading next visibility...
Loading greatness...
SCOUT B DEB details
Identifier
3392, 1968-066H
Orbit
LEO
Last TLE update1 day ago
Origin
Flag of USNASA LaRC (US)
ManufacturerUnknown
MissionSpacecraft
Bus & MotorUnknown bus, Unknown motor
MassUnknown
Launch date (UTC)
1968-08-08 (56 years ago)
Launch vehicleUnknown
Launch site
Air Force Western Test Range (AFWTR)
Object type
Payload
Rocket body
Debris
Shape & HBRUnknown
Radar Cross SectionSmall (<0.1 m²)

Expand to show TLE details & history

TLE from 1 day ago
0 SCOUT B DEB
1 03392U 68066H   24280.65781881  .00028612  00000-0  10750-1 0  9996
2 03392  80.6652 143.6862 0395833 116.4110 247.8244 13.95937181646274
Epoch: 2024-10-06T15:47Z
Definitive object data (Epoch: 2024-10-06T15:47:15.545Z)
Latitude0.00004°
Longitude-108.92519°
Altitude1,029.217 km
Speed7.277 km/s
True Right ascension09h 34m 44s
True Declination0° 00' 00"
Sunlit
Object was in daylight at TLE epoch
Predictive object data (real-time)
Latitude-34.61418°
Longitude76.49421°
Altitude966.231 km
Speed7.344 km/s
Apparent Right ascension22h 24m 01s
Apparent Declination-37° 09' 14"
Sunlit
Object is in full shadow
Predictive observer data (real-time)
Local Sidereal Time10:58:08
Azimuth70.217° E
Elevation-82.781°
Doppler factor1
Orbital elements
Apogee1,193.408 km
Perigee616.818 km
Semi-major axis7,283.25 km
Eccentricity0.0395833
Inclination80.6652°
RAAN143.6862°
Arg. of periapsis116.411°
True anomaly243.70461°
Mean anomaly247.8244°
Eccentric anomaly245.75646°
Mean motion3.49185 °/min
BSTAR0.01075
Period103.1 mins
No data available

SCOUT B DEB Visibility forecast

Observer location: 39.9160978°, -105.1181434

SCOUT B DEB is not visible in the next 10 days
Span
Click to sort rows by Start time (UTC) header in descending order
Start Az.
Max El. time (UTC)
Max El. Az.
Max El.
End time (UTC)
End Az.